This demonstration page uses our WeatherBlox Daily Observations layout. Learn more.

Left ArrowRight Arrow

30.00354, -91.81873

Hourly Observations for September 6, 2022

Temp ( °F °C ) Dew Point ( °F °C ) Humidity (%) Winds ( mph kmh ) Pressure ( in mb ) Visibility ( mi km ) Precip ( " mm )
12:53 am 00:53 Clear 76 24.4 73 22.8 91 91 S 3 6 30.00 1016 10 16 0.00 0.00
1:53 am 01:53 Clear with Light Rain 75 23.9 73 22.8 94 94 Calm 30.00 1016 10 16 0.01 0.13
2:53 am 02:53 Clear 75 23.9 73 22.8 94 94 Calm 30.00 1016 10 16 0.01 0.13
3:53 am 03:53 Mostly Clear 76 24.4 73 22.8 91 91 Calm 30.00 1016 10 16 0.01 0.13
4:53 am 04:53 Partly Cloudy 76 24.4 73 22.8 91 91 Calm 30.01 1016 10 16 0.01 0.13
5:53 am 05:53 Clear with Light Rain 76 24.4 73 22.8 91 91 Calm 30.03 1017 9 14 0.01 0.13
6:53 am 06:53 Partly Cloudy with Light Rain 76 24.4 74 23.3 94 94 Calm 30.05 1018 10 16 0.01 0.25
7:53 am 07:53 Mostly Sunny 77 25 74 23.3 90 90 NE 3 6 30.06 1018 10 16 0.01 0.13
8:53 am 08:53 Partly Cloudy 78 25.6 75 23.9 90 90 NNE 3 6 30.07 1018 10 16 0.01 0.13
9:53 am 09:53 Mostly Sunny 78 25.6 74 23.3 87 87 Calm 30.09 1019 10 16 0.00 0.00
10:53 am 10:53 Sunny 80 26.7 74 23.3 82 82 Calm 30.11 1020 10 16 0.00 0.00
11:53 am 11:53 Sunny 80 26.7 74 23.3 82 82 SSE 3 6 30.12 1020 10 16 0.00 0.00
12:53 pm 12:53 Mostly Cloudy with Light Rain 80 26.7 73 22.8 79 79 Calm 30.11 1020 10 16 0.01 0.13
1:53 pm 13:53 Mostly Sunny 81 27.2 72 22.2 74 74 SW 3 6 30.09 1019 10 16 0.01 0.13
2:53 pm 14:53 Sunny 83 28.3 70 21.1 65 65 Calm 30.05 1018 10 16 0.01 0.13
3:53 pm 15:53 Sunny 83 28.3 71 21.7 67 67 Calm 30.03 1017 10 16 0.00 0.00
4:53 pm 16:53 Sunny 83 28.3 71 21.7 67 67 Calm 30.02 1017 10 16 0.00 0.00
5:53 pm 17:53 Sunny 83 28.3 71 21.7 67 67 SSW 3 6 30.03 1017 10 16 0.00 0.00
6:53 pm 18:53 Sunny 81 27.2 72 22.2 74 74 SSW 6 9 30.03 1017 10 16 0.00 0.00
7:53 pm 19:53 Clear 77 25 72 22.2 84 84 S 6 9 30.03 1017 10 16 0.00 0.00
8:53 pm 20:53 Cloudy with Light Rain 76 24.4 73 22.8 91 91 Calm 30.06 1018 10 16 0.01 0.13
9:53 pm 21:53 Clear 74 23.3 71 21.7 91 91 Calm 30.07 1018 10 16 0.01 0.13
10:53 pm 22:53 Clear 74 23.3 71 21.7 91 91 Calm 30.07 1018 10 16 0.00 0.00
11:53 pm 23:53 Clear 72 22.2 70 21.1 93 93 Calm 30.05 1018 8 13 0.00 0.00

Powered by AerisWeather